Regional Weather Roundup
Issued by NWS State College, PA

Home | Current Version | Previous Version | Graphics & Text | Print | Product List | Glossary On
Versions: 1 2 3 4 5 6 7 8 9 10 11 12 13 14 15 16 17 18 19 20 21 22 23 24 25 26 27 28 29 30 31 32 33 34 35 36 37 38 39 40 41 42 43 44 45 46 47 48 49 50
000
ASUS41 KCTP 252110
RWRCTP

REGIONAL WEATHER ROUNDUP
NATIONAL WEATHER SERVICE STATE COLLEGE PA
400 PM EST SAT FEB 25 2017

Note: "fair" indicates few or no clouds below 12,000 feet with no
significant weather and/or obstructions to visibility.

* = STATION THAT DOES NOT REPORT PRECIPITATION /E.G. RAIN...SNOW...ETC/
    THUNDER OR FOG.

PAZ002>004-007>009-013>016-020>023-029>032-252200-
WESTERN PENNSYLVANIA

CITY           SKY/WX    TMP DP  RH WIND       PRES   REMARKS
ERIE           CLOUDY    35  30  82 W16G30    29.67R
MEADVILLE      CLOUDY    34  27  75 W20G25    29.66R
FRANKLIN*      CLOUDY    37  25  60 W20G35    29.66R
NEW CASTLE     LGT RAIN  37  25  61 W24G35    29.71R
BEAVER COUNTY  NOT AVBL
BUTLER*        PTSUNNY   43  27  52 W16G28    29.67S
PITTSBURGH INT PTSUNNY   43  23  45 W20G39    29.67R
PITTSBURGH     PTSUNNY   43  26  51 W22G37    29.67R
INDIANA*       CLOUDY    45  34  65 NW17G30   29.64R
LATROBE        PTSUNNY   46  32  57 W29G40    29.65R
WASHINGTON CO* CLOUDY    43  25  49 W21G32    29.73R
$$

PAZ004>006-010>012-017>019-024>028-033>037-041-042-045-046-049>053-252200-
CENTRAL PENNSYLVANIA

CITY           SKY/WX    TMP DP  RH WIND       PRES   REMARKS
BRADFORD       LGT RAIN  37  32  82 NW21G32   29.55R
DUBOIS         CLOUDY    44  30  57 W23G37    29.56R
CLEARFIELD       N/A    N/A N/A N/A MISG      29.56R
JOHNSTOWN      CLOUDY    45  34  65 W20G31    29.56S
ALTOONA        LGT RAIN  47  39  74 W15       29.59R
STATE COLLEGE  DRIZZLE   45  41  87 W7        29.56R
WILLIAMSPORT   LGT RAIN  46  42  86 W14       29.53R
SELINSGROVE    LGT RAIN  48 N/A N/A NW10G24   29.55R
FT INDIANTOWN  CLOUDY    48  48 100 NW15G33   29.49R THUNDER
CAPITAL CITY   LGT RAIN  53  44  71 NW15      29.52R
HARRISBURG     CLOUDY    51  46  83 NW20      29.52R
YORK           CLOUDY    53  49  86 W16G24    29.51R
$$

PAZ038>040-043-044-047-048-054-055-060>062-067>071-252200-
EASTERN PENNSYLVANIA

CITY           SKY/WX    TMP DP  RH WIND       PRES   REMARKS
SCRANTON       TSTM      55  55 100 SW21G31   29.41R VSB 1
MOUNT POCONO   CLOUDY    61  53  75 SE24G33   29.38F
ALLENTOWN      CLOUDY    71  54  54 S17G29    29.38F
QUAKERTOWN*    CLOUDY    68  55  64 S14G22    29.41F
READING        TSTM      54  52  93 W25G61    29.51R
LANCASTER      TSTM      52  51  97 W24       29.50R
COATESVILLE    MOCLDY    66  55  68 SE13G21   29.43F
POTTSTOWN      PTSUNNY   69  55  60 S14G28    29.42F
BLUE BELL      MOSUNNY   68  54  60 S13G26    29.42R
DOYLESTOWN     PTSUNNY   69  55  60 SE13G24   29.42F
WILLOW GROVE   NOT AVBL
NORTH PHILA    MOSUNNY   71  55  56 SE15G28   29.45F
PHILADELPHIA   PTSUNNY   69  54  58 S18       29.43F
$$



USA.gov is the U.S. government's official web portal to all federal, state and local government web resources and services.